Norma, North Dakota
Current Conditions -  °F | °C
As of 5:35 PM on Thursday 18 Dec 2014 (Local Time) from K08D Reporting Station
Overcast Overcast  
Wind Chill: 23°   Ceiling: 500
Heat Index: 23°   Visibility: 10mi
Dew Point: 23°   Wind: 3mph
Humidity: 100%   Direction: 200°SSW
Pressure: 29.95"   Gusts: NA
Location:  48.6651°N, 102.033°W
Report Text: K08D 182335Z AUTO 20003KT 10SM OVC005 M05/M05 A2995 RMK AO2
Loading
Personal Weather Stations






























Interactive Weather Map New forecast layout! Learn more

10-Day Weather Forecast

Advertisements
Track Severe Weather on mobile